| time (UTC) | temp F | wind direction | speed knots | gust knots | rain 1hr in | rain 24hr in | rain mn in | humidity % | barometer mb |
| 20260505010003 | 57 | 11 | 6.1 | 11.3 | 0.00 | 0.00 | 0.00 | 60 | |
| 20260505005504 | 57 | 8 | 6.1 | 9.6 | 0.00 | 0.00 | 0.00 | 60 | |
| 20260505005004 | 57 | 11 | 6.1 | 9.6 | 0.00 | 0.00 | 0.00 | 60 | |
| 20260505004504 | 57 | 7 | 7.8 | 11.3 | 0.00 | 0.00 | 0.00 | 60 | |
| 20260505004003 | 57 | 6 | 9.6 | 11.3 | 0.00 | 0.00 | 0.00 | 60 | |
| 20260505003503 | 57 | 10 | 7.8 | 9.6 | 0.00 | 0.00 | 0.00 | 59 | |
| 20260505003003 | 57 | 19 | 3.5 | 7.8 | 0.00 | 0.00 | 0.00 | 59 | |
| 20260505002503 | 57 | 13 | 6.1 | 9.6 | 0.00 | 0.00 | 0.00 | 59 | |
| 20260505002004 | 57 | 11 | 6.1 | 9.6 | 0.00 | 0.00 | 0.00 | 59 | |
| 20260505001504 | 57 | 27 | 6.1 | 7.8 | 0.00 | 0.00 | 0.00 | 59 | |
| 20260505001004 | 57 | 31 | 3.5 | 6.1 | 0.00 | 0.00 | 0.00 | 58 | |
| 20260505000504 | 57 | 19 | 3.5 | 7.8 | 0.00 | 0.00 | 0.00 | 58 | |
| 20260505000004 | 59 | 17 | 3.5 | 6.1 | 0.00 | 0.00 | 0.00 | 57 | |
| 20260504235503 | 59 | 359 | 6.1 | 9.6 | 0.00 | 0.00 | 0.00 | 57 | |
| 20260504235003 | 59 | 21 | 3.5 | 6.1 | 0.00 | 0.00 | 0.00 | 56 | |
| 20260504234503 | 59 | 29 | 3.5 | 6.1 | 0.00 | 0.00 | 0.00 | 55 | |
| 20260504234002 | 61 | 38 | 6.1 | 6.1 | 0.00 | 0.00 | 0.00 | 55 | |
| 20260504233504 | 61 | 61 | 3.5 | 6.1 | 0.00 | 0.00 | 0.00 | 55 | |
| 20260504233003 | 59 | 53 | 7.8 | 11.3 | 0.00 | 0.00 | 0.00 | 55 | |
| 20260504232503 | 59 | 44 | 7.8 | 9.6 | 0.00 | 0.00 | 0.00 | 56 | |
| 20260504232006 | 59 | 35 | 6.1 | 9.6 | 0.00 | 0.00 | 0.00 | 56 | |
| 20260504231510 | 59 | 41 | 3.5 | 6.1 | 0.00 | 0.00 | 0.00 | 55 | |
| 20260504231002 | 59 | 53 | 3.5 | 6.1 | 0.00 | 0.00 | 0.00 | 55 | |
| 20260504230503 | 61 | 60 | 6.1 | 7.8 | 0.00 | 0.00 | 0.00 | 55 | |
| 20260504230003 | 59 | 60 | 6.1 | 7.8 | 0.00 | 0.00 | 0.00 | 55 | |
| 20260504225503 | 59 | 57 | 6.1 | 7.8 | 0.00 | 0.00 | 0.00 | 56 | |
| 20260504225003 | 59 | 50 | 6.1 | 7.8 | 0.00 | 0.00 | 0.00 | 56 | |
| 20260504224504 | 59 | 39 | 3.5 | 7.8 | 0.00 | 0.00 | 0.00 | 57 | |
| 20260504224003 | 59 | 36 | 3.5 | 7.8 | 0.00 | 0.00 | 0.00 | 57 | |
| 20260504223508 | 59 | 27 | 6.1 | 7.8 | 0.00 | 0.00 | 0.00 | 58 | |
| 20260504223003 | 59 | 32 | 6.1 | 7.8 | 0.00 | 0.00 | 0.00 | 58 | |
| 20260504222502 | 59 | 31 | 3.5 | 7.8 | 0.00 | 0.00 | 0.00 | 58 | |
| 20260504222006 | 59 | 22 | 6.1 | 9.6 | 0.00 | 0.00 | 0.00 | 58 | |
| 20260504221504 | 59 | 10 | 6.1 | 9.6 | 0.00 | 0.00 | 0.00 | 59 | |
| 20260504221003 | 59 | 15 | 6.1 | 7.8 | 0.00 | 0.00 | 0.00 | 59 | |
| 20260504220504 | 59 | 26 | 6.1 | 7.8 | 0.00 | 0.00 | 0.00 | 58 | |
| 20260504220004 | 59 | 17 | 3.5 | 9.6 | 0.00 | 0.00 | 0.00 | 58 | |
| 20260504215503 | 59 | 17 | 7.8 | 11.3 | 0.00 | 0.00 | 0.00 | 59 | |
| 20260504215004 | 59 | 18 | 6.1 | 9.6 | 0.00 | 0.00 | 0.00 | 59 | |
| 20260504214503 | 59 | 12 | 6.1 | 11.3 | 0.00 | 0.00 | 0.00 | 58 | |
| 20260504214003 | 59 | 19 | 7.8 | 13.9 | 0.00 | 0.00 | 0.00 | 58 | |
| 20260504213503 | 59 | 14 | 6.1 | 9.6 | 0.00 | 0.00 | 0.00 | 58 | |
| 20260504213004 | 59 | 14 | 7.8 | 11.3 | 0.00 | 0.00 | 0.00 | 58 | |
| 20260504212504 | 59 | 9 | 7.8 | 13.9 | 0.00 | 0.00 | 0.00 | 58 | |
| 20260504212005 | 59 | 10 | 7.8 | 11.3 | 0.00 | 0.00 | 0.00 | 58 | |
| 20260504211503 | 59 | 14 | 6.1 | 7.8 | 0.00 | 0.00 | 0.00 | 57 | |
| 20260504211003 | 59 | 12 | 7.8 | 9.6 | 0.00 | 0.00 | 0.00 | 57 | |
| 20260504210504 | 59 | 10 | 7.8 | 9.6 | 0.00 | 0.00 | 0.00 | 57 | |
| 20260504210004 | 59 | 21 | 7.8 | 11.3 | 0.00 | 0.00 | 0.00 | 57 | |
| 20260504205503 | 59 | 14 | 7.8 | 11.3 | 0.00 | 0.00 | 0.00 | 57 | |
| 20260504205003 | 59 | 14 | 6.1 | 7.8 | 0.00 | 0.00 | 0.00 | 57 | |
| 20260504204503 | 59 | 17 | 6.1 | 9.6 | 0.00 | 0.00 | 0.00 | 57 | |
| 20260504204003 | 59 | 23 | 6.1 | 9.6 | 0.00 | 0.00 | 0.00 | 57 | |
| 20260504203503 | 59 | 4 | 3.5 | 7.8 | 0.00 | 0.00 | 0.00 | 57 | |
| 20260504203004 | 59 | 31 | 6.1 | 11.3 | 0.00 | 0.00 | 0.00 | 57 | |
| 20260504202503 | 59 | 4 | 7.8 | 9.6 | 0.00 | 0.00 | 0.00 | 57 | |
| 20260504202005 | 59 | 6 | 6.1 | 9.6 | 0.00 | 0.00 | 0.00 | 57 | |
| 20260504201504 | 59 | 10 | 6.1 | 11.3 | 0.00 | 0.00 | 0.00 | 57 | |
| 20260504201003 | 59 | 15 | 7.8 | 11.3 | 0.00 | 0.00 | 0.00 | 57 | |
| 20260504200504 | 59 | 17 | 7.8 | 11.3 | 0.00 | 0.00 | 0.00 | 58 | |
| 20260504200003 | 59 | 21 | 7.8 | 11.3 | 0.00 | 0.00 | 0.00 | 58 | |
| 20260504195504 | 59 | 10 | 6.1 | 9.6 | 0.00 | 0.00 | 0.00 | 58 | |
| 20260504195004 | 59 | 13 | 7.8 | 11.3 | 0.00 | 0.00 | 0.00 | 58 | |
| 20260504194504 | 59 | 5 | 7.8 | 15.6 | 0.00 | 0.00 | 0.00 | 58 | |
| 20260504194003 | 59 | 7 | 7.8 | 11.3 | 0.00 | 0.00 | 0.00 | 58 | |
| 20260504193504 | 59 | 16 | 7.8 | 13.9 | 0.00 | 0.00 | 0.00 | 59 | |
| 20260504193003 | 59 | 13 | 7.8 | 13.9 | 0.00 | 0.00 | 0.00 | 58 | |
| 20260504192503 | 59 | 8 | 6.1 | 15.6 | 0.00 | 0.00 | 0.00 | 59 | |
| 20260504192007 | 59 | 5 | 7.8 | 13.9 | 0.00 | 0.00 | 0.00 | 58 | |
| 20260504191503 | 59 | 13 | 7.8 | 13.9 | 0.00 | 0.00 | 0.00 | 58 | |
| 20260504191003 | 59 | 25 | 9.6 | 13.9 | 0.00 | 0.00 | 0.00 | 58 | |
| 20260504190504 | 59 | 3 | 9.6 | 13.9 | 0.00 | 0.00 | 0.00 | 58 | |
| 20260504190004 | 59 | 13 | 7.8 | 13.9 | 0.00 | 0.00 | 0.00 | 58 | |
| 20260504185503 | 59 | 12 | 7.8 | 13.9 | 0.00 | 0.00 | 0.00 | 58 | |
| 20260504185004 | 59 | 16 | 7.8 | 13.9 | 0.00 | 0.00 | 0.00 | 58 | |
| 20260504184504 | 59 | 9 | 7.8 | 9.6 | 0.00 | 0.00 | 0.00 | 57 | |
| 20260504184003 | 59 | 15 | 7.8 | 11.3 | 0.00 | 0.00 | 0.00 | 57 | |
| 20260504183503 | 59 | 3 | 7.8 | 11.3 | 0.00 | 0.00 | 0.00 | 57 | |
| 20260504183003 | 59 | 1 | 9.6 | 13.9 | 0.00 | 0.00 | 0.00 | 57 | |
| 20260504182503 | 59 | 6 | 7.8 | 11.3 | 0.00 | 0.00 | 0.00 | 57 | |
| 20260504182008 | 59 | 5 | 7.8 | 11.3 | 0.00 | 0.00 | 0.00 | 56 | |
| 20260504181503 | 61 | 9 | 6.1 | 9.6 | 0.00 | 0.00 | 0.00 | 56 | |
| 20260504181004 | 61 | 354 | 3.5 | 9.6 | 0.00 | 0.00 | 0.00 | 56 | |
| 20260504180508 | 61 | 2 | 7.8 | 11.3 | 0.00 | 0.00 | 0.00 | 56 | |
| 20260504180004 | 61 | 2 | 6.1 | 9.6 | 0.00 | 0.00 | 0.00 | 55 | |
| 20260504175503 | 61 | 353 | 6.1 | 9.6 | 0.00 | 0.00 | 0.00 | 55 | |
| 20260504175003 | 61 | 2 | 7.8 | 13.9 | 0.00 | 0.00 | 0.00 | 55 | |
| 20260504174504 | 61 | 5 | 6.1 | 9.6 | 0.00 | 0.00 | 0.00 | 55 | |
| 20260504174003 | 61 | 8 | 7.8 | 13.9 | 0.00 | 0.00 | 0.00 | 55 | |
| 20260504173504 | 61 | 4 | 9.6 | 13.9 | 0.00 | 0.00 | 0.00 | 55 | |
| 20260504173003 | 61 | 19 | 7.8 | 13.9 | 0.00 | 0.00 | 0.00 | 55 | |
| 20260504172503 | 61 | 9 | 6.1 | 9.6 | 0.00 | 0.00 | 0.00 | 55 | |
| 20260504172008 | 61 | 358 | 7.8 | 11.3 | 0.00 | 0.00 | 0.00 | 55 | |
| 20260504171504 | 61 | 15 | 7.8 | 11.3 | 0.00 | 0.00 | 0.00 | 55 | |
| 20260504171003 | 61 | 1 | 7.8 | 11.3 | 0.00 | 0.00 | 0.00 | 55 | |
| 20260504170504 | 61 | 7 | 7.8 | 13.9 | 0.00 | 0.00 | 0.00 | 55 | |
| 20260504151003 | 66 | 21 | 3.5 | 6.1 | 0.00 | 0.00 | 0.00 | 48 | |
| 20260504150503 | 66 | 19 | 6.1 | 7.8 | 0.00 | 0.00 | 0.00 | 48 | |
| 20260504141003 | 66 | 213 | 1.7 | 3.5 | 0.00 | 0.00 | 0.00 | 44 | |
| 20260504140503 | 66 | 240 | 1.7 | 3.5 | 0.00 | 0.00 | 0.00 | 44 | |
| 20260504130504 | 68 | 191 | 6.1 | 11.3 | 0.00 | 0.00 | 0.00 | 42 | |
| 20260504110503 | 66 | 239 | 1.7 | 6.1 | 0.00 | 0.00 | 0.00 | 44 | |
| 20260504100504 | 64 | 201 | 3.5 | 6.1 | 0.00 | 0.00 | 0.00 | 46 | |
| 20260504082004 | 63 | 292 | 0.0 | 0.0 | 0.00 | 0.00 | 0.00 | 49 | |
| 20260504081503 | 59 | 252 | 0.0 | 0.0 | 0.00 | 0.00 | 0.00 | 50 | |
| 20260504081004 | 59 | 234 | 1.7 | 3.5 | 0.00 | 0.00 | 0.00 | 49 | |
| 20260504080504 | 59 | 248 | 0.0 | 1.7 | 0.00 | 0.00 | 0.00 | 48 | |
| 20260504050504 | 54 | 166 | 1.7 | 1.7 | 0.00 | 0.00 | 0.00 | 50 | |
| 20260504050004 | 54 | 96 | 1.7 | 1.7 | 0.00 | 0.00 | 0.00 | 50 | |
| 20260504045503 | 54 | 123 | 1.7 | 3.5 | 0.00 | 0.00 | 0.00 | 50 | |
| 20260504045003 | 55 | 87 | 1.7 | 3.5 | 0.00 | 0.00 | 0.00 | 49 | |
| 20260504044503 | 55 | 91 | 3.5 | 3.5 | 0.00 | 0.00 | 0.00 | 49 | |
| 20260504044004 | 55 | 56 | 1.7 | 3.5 | 0.00 | 0.00 | 0.00 | 49 | |
| 20260504043504 | 55 | 60 | 3.5 | 3.5 | 0.00 | 0.00 | 0.00 | 50 | |
| 20260504043003 | 55 | 41 | 1.7 | 1.7 | 0.00 | 0.00 | 0.00 | 49 | |
| 20260504042503 | 55 | 66 | 1.7 | 3.5 | 0.00 | 0.00 | 0.00 | 49 | |
| 20260504042006 | 55 | 77 | 3.5 | 3.5 | 0.00 | 0.00 | 0.00 | 49 | |
| 20260504041504 | 55 | 82 | 1.7 | 1.7 | 0.00 | 0.00 | 0.00 | 48 | |
| 20260504041003 | 55 | 69 | 1.7 | 3.5 | 0.00 | 0.00 | 0.00 | 48 | |
| 20260504040503 | 55 | 56 | 3.5 | 3.5 | 0.00 | 0.00 | 0.00 | 49 | |
| 20260504040004 | 55 | 47 | 3.5 | 6.1 | 0.00 | 0.00 | 0.00 | 48 | |
| 20260504035502 | 55 | 37 | 3.5 | 6.1 | 0.00 | 0.00 | 0.00 | 48 | |
| 20260504035003 | 55 | 76 | 1.7 | 3.5 | 0.00 | 0.00 | 0.00 | 47 | |
| 20260504034503 | 55 | 50 | 1.7 | 3.5 | 0.00 | 0.00 | 0.00 | 48 | |
| 20260504034002 | 55 | 41 | 1.7 | 3.5 | 0.00 | 0.00 | 0.00 | 48 | |
| 20260504033504 | 55 | 47 | 3.5 | 6.1 | 0.00 | 0.00 | 0.00 | 48 | |
| 20260504033003 | 57 | 57 | 6.1 | 7.8 | 0.00 | 0.00 | 0.00 | 48 | |
| 20260504032503 | 57 | 51 | 6.1 | 7.8 | 0.00 | 0.00 | 0.00 | 47 | |
| 20260504032004 | 57 | 20 | 1.7 | 6.1 | 0.00 | 0.00 | 0.00 | 46 | |
| 20260504031503 | 57 | 14 | 3.5 | 9.6 | 0.00 | 0.00 | 0.00 | 46 | |
| 20260504031003 | 57 | 17 | 6.1 | 9.6 | 0.00 | 0.00 | 0.00 | 46 | |
| 20260504030503 | 57 | 7 | 3.5 | 9.6 | 0.00 | 0.00 | 0.00 | 46 | |
| 20260504030003 | 55 | 8 | 3.5 | 6.1 | 0.00 | 0.00 | 0.00 | 46 | |
| 20260504025502 | 55 | 7 | 3.5 | 7.8 | 0.00 | 0.00 | 0.00 | 47 | |
| 20260504025004 | 55 | 354 | 3.5 | 6.1 | 0.00 | 0.00 | 0.00 | 46 | |
| 20260504024503 | 55 | 329 | 3.5 | 6.1 | 0.00 | 0.00 | 0.00 | 46 | |
| 20260504024003 | 55 | 320 | 1.7 | 6.1 | 0.00 | 0.00 | 0.00 | 46 | |
| 20260504023503 | 55 | 341 | 1.7 | 3.5 | 0.00 | 0.00 | 0.00 | 46 | |
| 20260504023004 | 57 | 346 | 1.7 | 6.1 | 0.00 | 0.00 | 0.00 | 46 | |
| 20260504022502 | 57 | 355 | 3.5 | 6.1 | 0.00 | 0.00 | 0.00 | 45 | |
| 20260504022007 | 57 | 345 | 1.7 | 1.7 | 0.00 | 0.00 | 0.00 | 45 | |
| 20260504021504 | 57 | 304 | 1.7 | 1.7 | 0.00 | 0.00 | 0.00 | 45 | |
| 20260504021004 | 57 | 305 | 1.7 | 3.5 | 0.00 | 0.00 | 0.00 | 45 | |
| 20260504020503 | 57 | 303 | 1.7 | 3.5 | 0.00 | 0.00 | 0.00 | 45 | |
| 20260504020002 | 57 | 308 | 0.0 | 1.7 | 0.00 | 0.00 | 0.00 | 45 | |
| 20260504015503 | 57 | 339 | 1.7 | 6.1 | 0.00 | 0.00 | 0.00 | 46 | |
| 20260504015003 | 57 | 338 | 0.0 | 1.7 | 0.00 | 0.00 | 0.00 | 46 | |
| 20260504014504 | 57 | 348 | 3.5 | 7.8 | 0.00 | 0.00 | 0.00 | 46 | |
| 20260504014003 | 57 | 321 | 1.7 | 3.5 | 0.00 | 0.00 | 0.00 | 46 | |
| 20260504013503 | 57 | 9 | 3.5 | 6.1 | 0.00 | 0.00 | 0.00 | 46 | |
| 20260504013003 | 57 | 359 | 1.7 | 7.8 | 0.00 | 0.00 | 0.00 | 46 | |
| 20260504012503 | 57 | 349 | 1.7 | 3.5 | 0.00 | 0.00 | 0.00 | 46 | |
| 20260504012005 | 57 | 13 | 1.7 | 3.5 | 0.00 | 0.00 | 0.00 | 45 | |
| 20260504011503 | 57 | 5 | 3.5 | 6.1 | 0.00 | 0.00 | 0.00 | 45 | |
| 20260504011004 | 59 | 13 | 1.7 | 3.5 | 0.00 | 0.00 | 0.00 | 45 | |
| 20260504010503 | 59 | 18 | 0.0 | 1.7 | 0.00 | 0.00 | 0.00 | 44 |